Weather History for KCNU - November, 2012

Change the Weather History Date:

Saturday, November 17, 2012

  Actual Average Record
Temperature  
Mean Temperature 46 °F 46 °F  
Max Temperature 60 °F 56 °F 76 °F (1999)
Min Temperature 32 °F 35 °F 4 °F (1959)
Degree Days  
Heating Degree Days 19 19  
Month to date heating degree days 221 265  
Since 1 July heating degree days 547 553  
Cooling Degree Days 0 0  
Month to date cooling degree days 4 0  
Year to date cooling degree days 2006 1529  
Moisture  
Dew Point 30 °F    
Average Humidity 57    
Maximum Humidity 89    
Minimum Humidity 25    
Precipitation  
Precipitation 0.00 in 0.08 in 3.13 in (1931)
Month to date precipitation 1.17 1.50  
Year to date precipitation 31.45 39.32  
Sea Level Pressure  
Sea Level Pressure 30.34 in    
Wind  
Wind Speed 9 mph (SSE)    
Max Wind Speed 21 mph    
Max Gust Speed 25 mph    
Visibility 10 miles    
Events      
T = Trace of Precipitation, MM = Missing Value Source: NWS Daily Summary

Daily Weather History Graph

Daily Weather History Graph

Search for Another Location

Airport or City:

Trip Planner

Search our weather history database for the weather conditions in past years. The results will help you decide how hot, cold, wet, or windy it might be!

Date:

Astronomy

Nov. 17, 2012 Rise Set
Actual Time 7:04 AM CST 5:09 PM CST
Civil Twilight 6:36 AM CST 5:37 PM CST
Nautical Twilight 6:04 AM CST 6:08 PM CST
Astronomical Twilight 5:33 AM CST 6:40 PM CST
Moon 10:50 AM CST (11/17) 9:19 PM CST (11/17)
Length of Visible Light 11h 00m
Length of Day
10h 04m
Waxing Crescent, 20% of the Moon is Illuminated
Nov 17
Waxing Crescent
Nov 20
First Quarter
Nov 28
Full
Dec 6
Last Quarter
Dec 13
New

Hourly Weather History & Observations

Time (CST) Temp. Windchill Dew Point Humidity Pressure Visibility Wind Dir Wind Speed Gust Speed Precip Events Conditions
12:52 AM 39.0 °F 34.0 °F 33.1 °F 79% 30.36 in 10.0 mi ESE 6.9 mph - N/A   Clear
1:52 AM 37.0 °F 32.4 °F 32.0 °F 82% 30.36 in 10.0 mi SE 5.8 mph - N/A   Clear
2:52 AM 36.0 °F 31.1 °F 32.0 °F 86% 30.36 in 10.0 mi SE 5.8 mph - N/A   Clear
3:52 AM 35.1 °F 31.0 °F 30.9 °F 85% 30.37 in 10.0 mi SE 4.6 mph - N/A   Clear
4:52 AM 33.1 °F 27.7 °F 30.0 °F 89% 30.38 in 10.0 mi SE 5.8 mph - N/A   Clear
5:52 AM 34.0 °F 28.0 °F 30.0 °F 85% 30.38 in 10.0 mi SE 6.9 mph - N/A   Clear
6:52 AM 34.0 °F 28.0 °F 30.0 °F 85% 30.39 in 10.0 mi SE 6.9 mph - N/A   Clear
7:52 AM 36.0 °F 32.1 °F 30.9 °F 82% 30.40 in 9.0 mi SE 4.6 mph - N/A   Clear
8:52 AM 46.0 °F 41.4 °F 36.0 °F 68% 30.40 in 10.0 mi South 9.2 mph - N/A   Clear
9:52 AM 52.0 °F - 35.1 °F 53% 30.39 in 10.0 mi South 13.8 mph - N/A   Clear
10:52 AM 55.9 °F - 33.1 °F 42% 30.40 in 10.0 mi South 16.1 mph - N/A   Clear
11:52 AM 57.9 °F - 33.1 °F 39% 30.38 in 10.0 mi South 15.0 mph - N/A   Clear
12:52 PM 59.0 °F - 33.1 °F 38% 30.35 in 10.0 mi South 17.3 mph 23.0 mph N/A   Clear
1:52 PM 60.1 °F - 30.0 °F 32% 30.32 in 10.0 mi South 15.0 mph - N/A   Clear
2:52 PM 60.1 °F - 27.0 °F 28% 30.30 in 10.0 mi SSE 16.1 mph 20.7 mph N/A   Clear
3:52 PM 57.9 °F - 23.0 °F 26% 30.29 in 10.0 mi SSE 17.3 mph 21.9 mph N/A   Clear
4:52 PM 52.0 °F - 28.9 °F 41% 30.30 in 10.0 mi SSE 8.1 mph - N/A   Clear
5:52 PM 46.0 °F 42.5 °F 28.9 °F 51% 30.30 in 10.0 mi SSE 6.9 mph - N/A   Clear
6:52 PM 46.0 °F 42.5 °F 27.0 °F 47% 30.29 in 10.0 mi SE 6.9 mph - N/A   Clear
7:52 PM 45.0 °F 41.8 °F 27.0 °F 49% 30.29 in 10.0 mi SE 5.8 mph - N/A   Clear
8:52 PM 41.0 °F 37.1 °F 27.0 °F 57% 30.29 in 10.0 mi SSE 5.8 mph - N/A   Clear
9:52 PM 41.0 °F 39.0 °F 27.0 °F 57% 30.29 in 10.0 mi South 3.5 mph - N/A   Clear
10:52 PM 39.0 °F 35.7 °F 26.1 °F 60% 30.30 in 10.0 mi SSE 4.6 mph - N/A   Clear
11:52 PM 37.0 °F 32.4 °F 27.0 °F 67% 30.30 in 10.0 mi SE 5.8 mph - N/A   Clear